Weather History for K40J - August, 2014

Change the Weather History Date:

Tuesday, August 12, 2014

  Actual Average (KCTY) Record (KCTY)
Temperature  
Mean Temperature 78 °F 81 °F  
Max Temperature 86 °F 91 °F 97 °F (2011)
Min Temperature 71 °F 72 °F 69 °F (2002)
Degree Days  
Heating Degree Days 0 0  
Month to date heating degree days 0  
Since 1 June heating degree days 0  
Since 1 July heating degree days 0  
Cooling Degree Days 14 16  
Month to date cooling degree days 202  
Year to date cooling degree days 1636  
Since 1 June cooling degree days 1157  
Growing Degree Days 28 (Base 50)    
Moisture  
Dew Point 74 °F    
Average Humidity 86    
Maximum Humidity 100    
Minimum Humidity 66    
Precipitation  
Precipitation 1.17 in 0.22 in 0.99 in (2011)
Month to date precipitation 2.68  
Year to date precipitation 30.60  
Sea Level Pressure  
Sea Level Pressure 29.95 in    
Wind  
Wind Speed 5 mph (SW)    
Max Wind Speed 17 mph    
Max Gust Speed 26 mph    
Visibility 9 miles    
Events Rain , Thunderstorm    
T = Trace of Precipitation, MM = Missing Value Source: NWS Daily Summary

Daily Weather History Graph

Daily Weather History Graph

Search for Another Location

Airport or City:

Trip Planner

Search our weather history database for the weather conditions in past years. The results will help you decide how hot, cold, wet, or windy it might be!

Date:

Astronomy

Aug. 12, 2014 Rise Set
Actual Time 6:59 AM EDT 8:18 PM EDT
Civil Twilight 6:34 AM EDT 8:43 PM EDT
Nautical Twilight 6:04 AM EDT 9:13 PM EDT
Astronomical Twilight 5:32 AM EDT 9:44 PM EDT
Moon 9:40 PM EDT (8/12) 9:02 AM EDT (8/12)
Length of Visible Light 14h 09m
Length of Day
13h 18m
Waning Gibbous, 95% of the Moon is Illuminated
Aug 12
Waning Gibbous
Aug 17
Last Quarter
Aug 25
New
Sep 2
First Quarter
Sep 8
Full

Hourly Weather History & Observations

Time (EDT) Temp. Heat Index Dew Point Humidity Pressure Visibility Wind Dir Wind Speed Gust Speed Precip Events Conditions
4:15 AM 75.2 °F - 71.6 °F 89% 29.93 in 10.0 mi Calm Calm - N/A   Scattered Clouds
4:35 AM 73.4 °F - 71.6 °F 94% 29.92 in 10.0 mi Calm Calm - N/A   Clear
4:55 AM 75.2 °F - 73.4 °F 94% 29.94 in 10.0 mi South 4.6 mph - N/A Thunderstorm Scattered Clouds
5:20 AM 73.4 °F - 71.6 °F 94% 29.95 in 5.0 mi SSW 9.2 mph 26.5 mph 0.07 in Rain , Thunderstorm Heavy Thunderstorms and Rain
5:35 AM 71.6 °F - 71.6 °F 100% 29.94 in 1.2 mi SE 8.1 mph - 0.44 in Rain , Thunderstorm Heavy Thunderstorms and Rain
5:55 AM 71.6 °F - 71.6 °F 100% 29.93 in 7.0 mi SE 3.5 mph - 0.53 in Rain Light Rain
6:15 AM 73.4 °F - 71.6 °F 94% 29.93 in 4.0 mi Calm Calm - 0.04 in Rain Light Rain
6:35 AM 73.4 °F - 73.4 °F 100% 29.93 in 5.0 mi Calm Calm - 0.05 in Rain , Thunderstorm Rain
6:55 AM 73.4 °F - 73.4 °F 100% 29.96 in 3.0 mi SW 5.8 mph - 0.12 in Rain , Thunderstorm Heavy Thunderstorms and Rain
7:15 AM 73.4 °F - 73.4 °F 100% 29.95 in 1.5 mi East 3.5 mph - 0.45 in Rain , Thunderstorm Heavy Thunderstorms and Rain
7:35 AM 73.4 °F - 71.6 °F 94% 29.95 in 5.0 mi Calm Calm - 0.52 in Rain , Thunderstorm Thunderstorms and Rain
7:55 AM 73.4 °F - 73.4 °F 100% 29.95 in 10.0 mi Calm Calm - 0.52 in Rain Light Rain
8:15 AM 73.4 °F - 73.4 °F 100% 29.95 in 7.0 mi Calm Calm - N/A Thunderstorm Unknown
8:35 AM 73.4 °F - 73.4 °F 100% 29.95 in 10.0 mi Calm Calm - N/A   Scattered Clouds
8:55 AM 73.4 °F - 73.4 °F 100% 29.95 in 10.0 mi Calm Calm - N/A Thunderstorm Clear
9:15 AM 73.4 °F - 73.4 °F 100% 29.96 in 7.0 mi Calm Calm - N/A Thunderstorm Clear
9:35 AM 75.2 °F - 73.4 °F 94% 29.97 in 10.0 mi Calm Calm - N/A   Scattered Clouds
9:50 AM 77.0 °F - 75.2 °F 94% 29.96 in 10.0 mi Calm Calm - N/A   Mostly Cloudy
10:15 AM 77.0 °F - 75.2 °F 94% 29.97 in 7.0 mi Calm Calm - N/A Rain Light Rain
10:35 AM 78.8 °F - 77.0 °F 94% 29.98 in 10.0 mi SW 4.6 mph - N/A   Scattered Clouds
10:55 AM 80.6 °F 87.1 °F 77.0 °F 89% 29.98 in 10.0 mi SW 3.5 mph - N/A   Scattered Clouds
11:15 AM 80.6 °F 87.1 °F 77.0 °F 89% 29.98 in 10.0 mi SSW 4.6 mph - N/A   Mostly Cloudy
11:35 AM 80.6 °F 87.1 °F 77.0 °F 89% 29.98 in 10.0 mi SSW 5.8 mph - N/A Rain Light Rain
1:35 PM 86.0 °F 95.1 °F 75.2 °F 70% 29.97 in 10.0 mi SSW 11.5 mph 16.1 mph N/A   Mostly Cloudy
1:55 PM 84.2 °F 90.9 °F 73.4 °F 70% 29.97 in 10.0 mi SW 13.8 mph 18.4 mph N/A   Scattered Clouds
2:15 PM 86.0 °F 95.1 °F 75.2 °F 70% 29.96 in 10.0 mi SSW 12.7 mph 19.6 mph N/A   Scattered Clouds
2:35 PM 86.0 °F 95.1 °F 75.2 °F 70% 29.95 in 10.0 mi SSW 11.5 mph 20.7 mph N/A   Scattered Clouds
2:55 PM 86.0 °F 93.4 °F 73.4 °F 66% 29.95 in 10.0 mi SSW 12.7 mph - N/A   Mostly Cloudy
3:15 PM 84.2 °F 90.9 °F 73.4 °F 70% 29.94 in 10.0 mi SSW 15.0 mph - N/A   Scattered Clouds
3:40 PM 84.2 °F 92.3 °F 75.2 °F 74% 29.94 in 10.0 mi SW 16.1 mph 21.9 mph N/A   Scattered Clouds
4:15 PM 84.2 °F 90.9 °F 73.4 °F 70% 29.92 in 10.0 mi SW 17.3 mph 24.2 mph N/A   Mostly Cloudy
4:35 PM 84.2 °F 92.3 °F 75.2 °F 74% 29.92 in 10.0 mi SW 13.8 mph 20.7 mph N/A   Scattered Clouds
4:55 PM 82.4 °F 89.5 °F 75.2 °F 79% 29.93 in 10.0 mi SW 13.8 mph - N/A   Scattered Clouds
5:15 PM 84.2 °F 92.3 °F 75.2 °F 74% 29.93 in 10.0 mi SW 15.0 mph 18.4 mph N/A   Mostly Cloudy
5:35 PM 82.4 °F 88.2 °F 73.4 °F 74% 29.92 in 10.0 mi WSW 12.7 mph 19.6 mph N/A   Scattered Clouds
5:55 PM 82.4 °F 88.2 °F 73.4 °F 74% 29.92 in 10.0 mi SW 13.8 mph 18.4 mph N/A   Scattered Clouds
6:15 PM 82.4 °F 89.5 °F 75.2 °F 79% 29.92 in 10.0 mi WSW 12.7 mph - N/A   Scattered Clouds
6:35 PM 84.2 °F 92.3 °F 75.2 °F 74% 29.92 in 10.0 mi WSW 11.5 mph - N/A   Scattered Clouds
6:55 PM 82.4 °F 89.5 °F 75.2 °F 79% 29.92 in 10.0 mi WSW 11.5 mph - N/A   Scattered Clouds
7:15 PM 82.4 °F 88.2 °F 73.4 °F 74% 29.93 in 10.0 mi WSW 11.5 mph - N/A   Scattered Clouds
7:55 PM 82.4 °F 88.2 °F 73.4 °F 74% 29.93 in 10.0 mi WSW 6.9 mph - N/A   Clear
8:15 PM 80.6 °F 85.4 °F 73.4 °F 79% 29.93 in 10.0 mi SW 4.6 mph - N/A   Clear
8:35 PM 80.6 °F 86.2 °F 75.2 °F 84% 29.93 in 10.0 mi SW 4.6 mph - N/A   Clear
8:55 PM 78.8 °F - 75.2 °F 89% 29.94 in 10.0 mi SW 3.5 mph - N/A   Clear
9:15 PM 78.8 °F - 75.2 °F 89% 29.95 in 10.0 mi SW 3.5 mph - N/A   Scattered Clouds
9:35 PM 78.8 °F - 75.2 °F 89% 29.95 in 10.0 mi SSW 3.5 mph - N/A   Clear
9:55 PM 78.8 °F - 75.2 °F 89% 29.95 in 10.0 mi SSW 4.6 mph - N/A   Clear
10:15 PM 78.8 °F - 75.2 °F 89% 29.95 in 10.0 mi SW 3.5 mph - N/A   Clear
10:35 PM 78.8 °F - 75.2 °F 89% 29.95 in 10.0 mi SSW 3.5 mph - N/A   Clear
10:55 PM 78.8 °F - 75.2 °F 89% 29.96 in 10.0 mi Calm Calm - N/A   Clear
11:15 PM 78.8 °F - 75.2 °F 89% 29.96 in 10.0 mi SW 3.5 mph - N/A   Clear
11:35 PM 77.0 °F - 75.2 °F 94% 29.97 in 10.0 mi West 3.5 mph - N/A   Clear
11:55 PM 77.0 °F - 75.2 °F 94% 29.96 in 10.0 mi SW 4.6 mph - N/A   Scattered Clouds